IBE355 LEMD-KSFO

Flight info

Callsign IBE355
Flight time N/A
Altitude 32000
Route ZMR DCT OMESI DCT VES DCT KORUL/M082F340 DCT TAMEL/N0469F340 DCT XETBO DCT LIMRI/M082F350 DCT 53N020W 53N030W 53N040W 52N050W DCT TUDEP/N0467F360 DCT ANCER/N0474F380 DCT SSM J140 DLH J32 DPR/N0471F400 J32 FMG DCT ORRCA RISTI1
Aircraft A343/H-SDE2E3FGHIJ4J5M1RWXY/LB1D1

Departure

Time 2026-05-05 21:15
Airport Adolfo Suárez Madrid–Barajas Airport (LEMD)

Arrival

Time N/A
Airport San Francisco International Airport (KSFO)
Time Latitude Longitude Altitude Speed Heading
2026-05-05 20:24 40.49765 -3.56654 1975 ft 0 kts 271°
2026-05-05 21:02 40.49765 -3.56625 1977 ft 4 kts 269°
2026-05-05 21:03 40.49766 -3.56591 1974 ft 3 kts 269°
2026-05-05 21:03 40.49763 -3.56561 1974 ft 4 kts 303°
2026-05-05 21:03 40.49745 -3.56546 1977 ft 4 kts
2026-05-05 21:03 40.49726 -3.56547 1978 ft 1 kts 360°
2026-05-05 21:04 40.49723 -3.56547 1977 ft 0 kts 360°
2026-05-05 21:07 40.49739 -3.56547 1976 ft 3 kts 360°
2026-05-05 21:08 40.49758 -3.56547 1977 ft 3 kts 360°
2026-05-05 21:08 40.49779 -3.56547 1977 ft 4 kts 360°
2026-05-05 21:08 40.49824 -3.56547 1977 ft 8 kts
2026-05-05 21:08 40.49882 -3.56546 1977 ft 8 kts
2026-05-05 21:09 40.49936 -3.56546 1978 ft 7 kts
2026-05-05 21:09 40.49986 -3.56547 1977 ft 9 kts 355°
2026-05-05 21:09 40.50028 -3.56594 1981 ft 8 kts 299°
2026-05-05 21:09 40.50028 -3.56668 1979 ft 6 kts 264°
2026-05-05 21:10 40.50026 -3.56703 1979 ft 2 kts 265°
2026-05-05 21:10 40.50025 -3.56764 1982 ft 11 kts 270°
2026-05-05 21:10 40.50025 -3.56879 1982 ft 14 kts 270°
2026-05-05 21:10 40.50026 -3.57008 1980 ft 13 kts 270°
2026-05-05 21:11 40.50002 -3.57109 1986 ft 10 kts 218°
2026-05-05 21:11 40.49944 -3.57120 1990 ft 7 kts 180°
2026-05-05 21:11 40.49898 -3.57120 1992 ft 8 kts 180°
2026-05-05 21:11 40.49807 -3.57119 1991 ft 18 kts 180°
2026-05-05 21:12 40.49648 -3.57119 1987 ft 26 kts 180°
2026-05-05 21:12 40.49449 -3.57118 1982 ft 31 kts 180°
2026-05-05 21:12 40.49240 -3.57116 1984 ft 29 kts 179°
2026-05-05 21:12 40.49142 -3.57114 1986 ft 4 kts 178°
2026-05-05 21:13 40.49116 -3.57113 1986 ft 4 kts 178°
2026-05-05 21:13 40.49077 -3.57130 1988 ft 9 kts 218°
2026-05-05 21:13 40.49056 -3.57228 1990 ft 13 kts 269°
2026-05-05 21:13 40.49077 -3.57324 1990 ft 10 kts 307°
2026-05-05 21:14 40.49120 -3.57384 1992 ft 8 kts 314°
2026-05-05 21:14 40.49166 -3.57439 1993 ft 10 kts 327°
2026-05-05 21:14 40.49233 -3.57453 1990 ft 9 kts 360°
2026-05-05 21:14 40.49403 -3.57453 1987 ft 51 kts 359°
2026-05-05 21:15 40.49957 -3.57458 1994 ft 106 kts
2026-05-05 21:15 40.50856 -3.57468 2000 ft 151 kts 360°
2026-05-05 21:15 40.52033 -3.57473 2067 ft 184 kts 358°
2026-05-05 21:15 40.53272 -3.57417 2803 ft 174 kts
2026-05-05 21:16 40.54501 -3.57374 3378 ft 180 kts 356°
2026-05-05 21:16 40.55731 -3.57651 3890 ft 182 kts 329°
2026-05-05 21:16 40.56635 -3.58809 4418 ft 184 kts 310°
2026-05-05 21:16 40.57469 -3.60116 4925 ft 189 kts 313°
2026-05-05 21:17 40.58388 -3.61381 5411 ft 194 kts 316°
2026-05-05 21:17 40.59403 -3.62647 5837 ft 207 kts 316°
2026-05-05 21:17 40.60429 -3.64039 6349 ft 217 kts 313°
2026-05-05 21:17 40.61494 -3.65510 6830 ft 228 kts 313°
2026-05-05 21:18 40.62609 -3.67062 7314 ft 239 kts 313°
2026-05-05 21:18 40.63779 -3.68699 7805 ft 251 kts 312°
2026-05-05 21:18 40.65000 -3.70415 8299 ft 262 kts 312°
2026-05-05 21:18 40.66246 -3.72169 8795 ft 268 kts 311°
2026-05-05 21:19 40.67530 -3.73976 9291 ft 273 kts 311°
2026-05-05 21:19 40.68834 -3.75815 9809 ft 276 kts 311°
2026-05-05 21:19 40.70156 -3.77681 10279 ft 281 kts 311°
2026-05-05 21:19 40.71511 -3.79598 10751 ft 290 kts 311°
2026-05-05 21:20 40.72904 -3.81568 11239 ft 297 kts 311°
2026-05-05 21:20 40.74328 -3.83580 11729 ft 304 kts 311°
2026-05-05 21:20 40.75784 -3.85641 12213 ft 309 kts 310°
2026-05-05 21:20 40.77260 -3.87734 12726 ft 315 kts 310°
2026-05-05 21:21 40.78772 -3.89877 13215 ft 322 kts 311°
2026-05-05 21:21 40.80315 -3.92065 13737 ft 328 kts 310°
2026-05-05 21:21 40.81881 -3.94289 14201 ft 334 kts 311°
2026-05-05 21:21 40.83477 -3.96557 14666 ft 339 kts 310°
2026-05-05 21:22 40.85095 -3.98856 15161 ft 345 kts 311°
2026-05-05 21:22 40.86742 -4.01200 15642 ft 350 kts 311°
2026-05-05 21:22 40.88413 -4.03579 16112 ft 355 kts 311°
2026-05-05 21:22 40.90101 -4.05983 16628 ft 359 kts 311°
2026-05-05 21:23 40.91812 -4.08424 17116 ft 364 kts 311°
2026-05-05 21:23 40.93538 -4.10887 17630 ft 367 kts 311°
2026-05-05 21:23 40.95284 -4.13381 18154 ft 371 kts 311°
2026-05-05 21:23 40.97041 -4.15894 18620 ft 374 kts 310°
2026-05-05 21:24 40.98816 -4.18434 19075 ft 377 kts 310°